Location: Prague
(50.0984°N, 14.4360°E)
Time: 12:29:02
(UTC+01:00)

Envisat - Visible Passes

Search period start: 24 March 2019 00:00
Search period end: 03 April 2019 01:00
Orbit: 764 x 766 km, 98.2° (Epoch: 24 March)

Date Brightness Start Highest point End Pass type
(mag) Time Alt. Az. Time Alt. Az. Time Alt. Az.
24 Mar 6.0 20:08:51 10° WSW 20:11:31 14° W 20:14:13 10° NW visible
25 Mar 5.2 19:29:59 10° SSW 19:34:20 28° W 19:38:42 10° NW visible
26 Mar 3.9 18:52:22 10° S 18:57:20 56° W 19:02:22 10° NNW visible
27 Mar 5.8 19:56:48 10° SW 20:00:10 18° W 20:03:32 10° NW visible
28 Mar 4.8 19:18:25 10° SSW 19:23:01 34° W 19:27:40 10° NNW visible
29 Mar 6.3 20:25:21 10° W 20:26:05 10° W 20:26:49 10° WNW visible
30 Mar 5.6 19:44:57 10° SW 19:48:48 21° W 19:52:41 10° NW visible
31 Mar 4.5 20:06:56 10° SSW 20:11:44 42° W 20:16:34 10° NNW visible
01 Apr 6.0 21:12:21 10° WSW 21:14:41 13° W 21:17:01 10° WNW visible
02 Apr 5.3 20:33:15 10° SSW 20:37:28 26° W 20:41:44 10° NW visible
